Newport, VT

2:07 PM EDT on June 25, 2017 (GMT -0400)
Newport State

Weather History for KEFK - November, 2012

Change the Weather History Date:

Sunday, November 18, 2012

  Actual Average Record
Temperature  
Mean Temperature 31 °F -  
Max Temperature 45 °F 40 °F 67 °F (1953)
Min Temperature 17 °F 26 °F 2 °F (1936)
Degree Days  
Heating Degree Days 34    
Moisture  
Dew Point 16 °F    
Average Humidity 61    
Maximum Humidity 82    
Minimum Humidity 19    
Precipitation  
Precipitation 0.00 in - - ()
Sea Level Pressure  
Sea Level Pressure 30.65 in    
Wind  
Wind Speed 2 mph (SSW)    
Max Wind Speed 6 mph    
Max Gust Speed -    
Visibility 10 miles    
Events      
Averages and records for this station are not official NWS values.
T = Trace of Precipitation, MM = Missing Value Source: NWS Daily Summary

Daily Weather History Graph

Daily Weather History Graph

Search for Another Location

Airport or City:

Trip Planner

Search our weather history database for the weather conditions in past years. The results will help you decide how hot, cold, wet, or windy it might be!

Date:

Astronomy

Nov. 18, 2012 Rise Set
Actual Time 6:50 AM EST 4:17 PM EST
Civil Twilight 6:18 AM EST 4:49 PM EST
Nautical Twilight 5:43 AM EST 5:24 PM EST
Astronomical Twilight 5:08 AM EST 5:59 PM EST
Moon 11:13 AM EST (11/18) 9:37 PM EST (11/18)
Length of Visible Light 10h 30m
Length of Day
9h 26m
Waxing Crescent, 30% of the Moon is Illuminated
Nov 18
Waxing Crescent
Nov 20
First Quarter
Nov 28
Full
Dec 6
Last Quarter
Dec 13
New

Hourly Weather History & Observations

Time (EST) Temp. Windchill Dew Point Humidity Pressure Visibility Wind Dir Wind Speed Gust Speed Precip Events Conditions
12:15 AM 24.4 °F - 17.6 °F 75% 30.68 in 10.0 mi Calm Calm - N/A   Clear
12:35 AM 23.4 °F - 17.8 °F 79% 30.68 in 10.0 mi Calm Calm - N/A   Clear
12:55 AM 24.3 °F - 18.3 °F 78% 30.68 in 10.0 mi Calm Calm - N/A   Clear
1:15 AM 24.1 °F 19.7 °F 18.3 °F 79% 30.68 in 10.0 mi SSW 3.5 mph - N/A   Clear
1:35 AM 21.9 °F 15.7 °F 16.5 °F 80% 30.69 in 10.0 mi SW 4.6 mph - N/A   Clear
1:55 AM 21.7 °F 15.5 °F 16.3 °F 80% 30.69 in 10.0 mi SW 4.6 mph - N/A   Clear
2:15 AM 22.1 °F 15.9 °F 16.9 °F 80% 30.69 in 10.0 mi SW 4.6 mph - N/A   Clear
2:35 AM 21.2 °F - 15.6 °F 79% 30.69 in 10.0 mi Calm Calm - N/A   Clear
2:55 AM 22.1 °F - 16.7 °F 80% 30.69 in 10.0 mi Calm Calm - N/A   Clear
3:15 AM 23.0 °F - 18.0 °F 81% 30.68 in 10.0 mi Calm Calm - N/A   Clear
3:35 AM 21.6 °F - 16.5 °F 81% 30.68 in 10.0 mi Calm Calm - N/A   Clear
3:55 AM 22.1 °F 17.4 °F 17.1 °F 81% 30.68 in 10.0 mi SW 3.5 mph - N/A   Clear
4:15 AM 21.0 °F - 15.8 °F 80% 30.68 in 10.0 mi Calm Calm - N/A   Clear
4:35 AM 19.8 °F - 14.7 °F 81% 30.68 in 10.0 mi Calm Calm - N/A   Clear
4:55 AM 20.3 °F - 15.4 °F 81% 30.68 in 10.0 mi Calm Calm - N/A   Clear
5:15 AM 20.3 °F - 15.6 °F 82% 30.68 in 10.0 mi Calm Calm - N/A   Clear
5:35 AM 20.5 °F 15.6 °F 15.6 °F 81% 30.68 in 10.0 mi SW 3.5 mph - N/A   Clear
5:55 AM 19.2 °F 14.1 °F 14.0 °F 80% 30.69 in 10.0 mi SW 3.5 mph - N/A   Clear
6:15 AM 18.5 °F 13.3 °F 13.6 °F 81% 30.69 in 10.0 mi SW 3.5 mph - N/A   Clear
6:35 AM 19.4 °F - 14.7 °F 82% 30.69 in 10.0 mi Calm Calm - N/A   Clear
6:55 AM 17.6 °F - 12.2 °F 79% 30.69 in 10.0 mi Calm Calm - N/A   Clear
7:15 AM 18.5 °F 13.3 °F 13.3 °F 80% 30.69 in 10.0 mi SW 3.5 mph - N/A   Clear
7:35 AM 19.4 °F 14.3 °F 14.4 °F 81% 30.70 in 10.0 mi SW 3.5 mph - N/A   Clear
7:55 AM 21.6 °F - 16.5 °F 81% 30.69 in 10.0 mi Calm Calm - N/A   Clear
8:15 AM 23.7 °F - 18.5 °F 80% 30.69 in 10.0 mi Calm Calm - N/A   Clear
8:35 AM 25.9 °F - 19.2 °F 76% 30.70 in 10.0 mi Calm Calm - N/A   Clear
8:55 AM 25.7 °F - 19.0 °F 76% 30.70 in 10.0 mi Calm Calm - N/A   Clear
9:15 AM 27.7 °F - 20.8 °F 75% 30.71 in 10.0 mi Calm Calm - N/A   Clear
9:35 AM 29.5 °F - 21.9 °F 73% 30.70 in 10.0 mi Calm Calm - N/A   Clear
9:55 AM 30.7 °F - 21.4 °F 68% 30.70 in 10.0 mi Calm Calm - N/A   Clear
10:15 AM 32.7 °F - 22.1 °F 65% 30.70 in 10.0 mi Calm Calm - N/A   Clear
10:35 AM 34.9 °F 32.0 °F 21.4 °F 58% 30.69 in 10.0 mi SE 3.5 mph - N/A   Clear
10:55 AM 37.4 °F 34.9 °F 21.0 °F 52% 30.68 in 10.0 mi SW 3.5 mph - N/A   Clear
11:15 AM 38.5 °F 36.1 °F 17.8 °F 43% 30.67 in 10.0 mi SSW 3.5 mph - N/A   Clear
11:35 AM 40.1 °F 36.9 °F 16.0 °F 38% 30.67 in 10.0 mi South 4.6 mph - N/A   Clear
11:55 AM 41.0 °F 38.0 °F 14.9 °F 35% 30.66 in 10.0 mi SSE 4.6 mph - N/A   Clear
12:15 PM 42.3 °F 39.4 °F 11.8 °F 29% 30.65 in 10.0 mi South 4.6 mph - N/A   Clear
12:35 PM 43.0 °F 39.5 °F 13.1 °F 30% 30.64 in 10.0 mi SW 5.8 mph - N/A   Clear
12:55 PM 43.3 °F 41.7 °F 10.2 °F 26% 30.64 in 10.0 mi South 3.5 mph - N/A   Clear
1:15 PM 45.0 °F - 8.8 °F 23% 30.64 in 10.0 mi Calm Calm - N/A   Clear
1:35 PM 45.1 °F - 7.5 °F 22% 30.62 in 10.0 mi Calm Calm - N/A   Clear
1:55 PM 45.1 °F - 7.5 °F 22% 30.62 in 10.0 mi Calm Calm - N/A   Clear
2:15 PM 45.0 °F - 4.5 °F 19% 30.62 in 10.0 mi Calm Calm - N/A   Clear
2:55 PM 45.0 °F - 4.5 °F 19% 30.61 in 10.0 mi Calm Calm - N/A   Clear
3:15 PM 44.1 °F - 13.5 °F 29% 30.62 in 10.0 mi Calm Calm - N/A   Clear
3:35 PM 43.3 °F - 8.2 °F 24% 30.62 in 10.0 mi Calm Calm - N/A   Clear
3:55 PM 39.9 °F - 9.9 °F 29% 30.62 in 10.0 mi Calm Calm - N/A   Clear
4:15 PM 38.5 °F - 8.6 °F 29% 30.61 in 10.0 mi Calm Calm - N/A   Clear
4:35 PM 34.9 °F - 14.4 °F 43% 30.61 in 10.0 mi Calm Calm - N/A   Clear
4:55 PM 35.4 °F - 14.0 °F 41% 30.61 in 10.0 mi Calm Calm - N/A   Clear
5:15 PM 31.8 °F - 14.7 °F 49% 30.62 in 10.0 mi Calm Calm - N/A   Clear
5:35 PM 33.1 °F - 15.6 °F 49% 30.62 in 10.0 mi Calm Calm - N/A   Clear
5:55 PM 34.7 °F 31.8 °F 12.9 °F 41% 30.62 in 10.0 mi WSW 3.5 mph - N/A   Clear
6:15 PM 33.3 °F 27.9 °F 14.7 °F 47% 30.62 in 10.0 mi SW 5.8 mph - N/A   Clear
6:35 PM 34.2 °F 31.2 °F 14.4 °F 44% 30.62 in 10.0 mi SSW 3.5 mph - N/A   Clear
6:55 PM 31.5 °F - 15.4 °F 52% 30.63 in 10.0 mi Calm Calm - N/A   Clear
7:15 PM 30.4 °F 26.9 °F 17.2 °F 58% 30.63 in 10.0 mi SW 3.5 mph - N/A   Clear
7:35 PM 31.3 °F 26.6 °F 17.1 °F 56% 30.62 in 10.0 mi SSW 4.6 mph - N/A   Clear
7:55 PM 30.2 °F 25.4 °F 17.6 °F 60% 30.62 in 10.0 mi SW 4.6 mph - N/A   Clear
8:15 PM 29.5 °F 24.5 °F 17.6 °F 61% 30.62 in 10.0 mi SW 4.6 mph - N/A   Clear
8:35 PM 28.2 °F - 18.3 °F 66% 30.61 in 10.0 mi Calm Calm - N/A   Clear
8:55 PM 29.1 °F 25.4 °F 18.5 °F 65% 30.61 in 10.0 mi South 3.5 mph - N/A   Clear
9:15 PM 28.9 °F 22.8 °F 18.9 °F 66% 30.61 in 10.0 mi SSW 5.8 mph - N/A   Clear
9:35 PM 28.4 °F 22.2 °F 18.5 °F 66% 30.60 in 10.0 mi SW 5.8 mph - N/A   Clear
9:55 PM 29.1 °F 25.4 °F 19.0 °F 66% 30.60 in 10.0 mi SSW 3.5 mph - N/A   Clear
10:15 PM 27.1 °F - 18.5 °F 70% 30.60 in 10.0 mi Calm Calm - N/A   Clear
10:35 PM 28.0 °F 22.8 °F 19.9 °F 72% 30.60 in 10.0 mi SSW 4.6 mph - N/A   Clear
10:55 PM 27.5 °F 21.1 °F 19.2 °F 71% 30.59 in 10.0 mi SW 5.8 mph - N/A   Clear
11:15 PM 28.6 °F 24.8 °F 20.1 °F 71% 30.60 in 10.0 mi SSW 3.5 mph - N/A   Clear
11:35 PM 28.4 °F 23.3 °F 19.9 °F 71% 30.59 in 10.0 mi SSW 4.6 mph - N/A   Clear
11:55 PM 27.5 °F 22.2 °F 20.1 °F 74% 30.59 in 10.0 mi SSW 4.6 mph - N/A   Clear